Powrót do katalogu

SL-14 DEB

AktywnyPO
NORAD 45315·DEBRIS·🇷🇺 Russia

Wystrzelony Aug 15, 1991 z Plesetsk Cosmodrome

Loading…

Następne Przeloty (najbliższe 24 godziny)

TLE

ŚwieżeSource: Space-Track

Epoka: Sep 14, 2026, 11:47 UTC

1 45315U 91056BD  26257.49163488  .00000241  00000-0  60611-3 0  9998
2 45315  82.5559  84.1739 0028252 332.0645  27.8959 13.15600646314356

Śledź SL-14 DEB w czasie rzeczywistym z AllMySat

Download on the App Store